NKS1030 MMUN-KFLL

Flight info

Callsign NKS1030
Flight time N/A
Altitude 27000
Route NUDAL1A NUDAL UV106 PODON UG765 MAXIM BHHIA3
Aircraft A20N/M-SDE2E3FGHIRWXY/LB1

Departure

Time 2026-05-03 20:38
Airport Cancún International Airport (MMUN)

Arrival

Time N/A
Airport Fort Lauderdale Hollywood International Airport (KFLL)
Time Latitude Longitude Altitude Speed Heading
2026-05-03 20:22 21.04100 -86.87851 25 ft 0 kts 303°
2026-05-03 20:28 21.04096 -86.87845 17 ft 3 kts 303°
2026-05-03 20:29 21.04087 -86.87830 13 ft 1 kts 303°
2026-05-03 20:29 21.04084 -86.87825 15 ft 1 kts 303°
2026-05-03 20:29 21.04071 -86.87804 26 ft 2 kts 291°
2026-05-03 20:29 21.04072 -86.87787 25 ft 2 kts 212°
2026-05-03 20:34 21.04056 -86.87797 25 ft 8 kts 212°
2026-05-03 20:34 21.03997 -86.87847 21 ft 13 kts 231°
2026-05-03 20:35 21.03999 -86.87931 24 ft 12 kts 304°
2026-05-03 20:35 21.04049 -86.88016 22 ft 15 kts 303°
2026-05-03 20:35 21.04114 -86.88118 24 ft 18 kts 304°
2026-05-03 20:35 21.04191 -86.88243 25 ft 22 kts 303°
2026-05-03 20:36 21.04274 -86.88377 23 ft 22 kts 303°
2026-05-03 20:36 21.04357 -86.88512 27 ft 22 kts 303°
2026-05-03 20:36 21.04440 -86.88647 24 ft 22 kts 303°
2026-05-03 20:36 21.04526 -86.88788 24 ft 23 kts 305°
2026-05-03 20:37 21.04620 -86.88930 25 ft 24 kts 302°
2026-05-03 20:37 21.04564 -86.89059 23 ft 21 kts 211°
2026-05-03 20:37 21.04499 -86.89044 24 ft 0 kts 129°
2026-05-03 20:37 21.04491 -86.89033 27 ft 6 kts 126°
2026-05-03 20:38 21.04294 -86.88722 27 ft 95 kts 123°
2026-05-03 20:38 21.03785 -86.87901 27 ft 165 kts 124°
2026-05-03 20:38 21.03087 -86.86811 640 ft 187 kts 128°
2026-05-03 20:38 21.02245 -86.85645 1352 ft 215 kts 129°
2026-05-03 20:39 21.01282 -86.84277 2041 ft 241 kts 122°
2026-05-03 20:39 21.00457 -86.82640 2492 ft 257 kts 116°
2026-05-03 20:39 20.99695 -86.80910 2098 ft 260 kts 115°
2026-05-03 20:39 20.98925 -86.79162 1803 ft 257 kts 116°
2026-05-03 20:40 20.98165 -86.77508 1762 ft 243 kts 117°
2026-05-03 20:40 20.97370 -86.75858 1962 ft 252 kts 118°
2026-05-03 20:40 20.96573 -86.74238 2187 ft 249 kts 117°
2026-05-03 20:40 20.96041 -86.72451 2511 ft 263 kts 95°
2026-05-03 20:41 20.96227 -86.70433 3022 ft 287 kts 78°
2026-05-03 20:41 20.96646 -86.68261 3578 ft 309 kts 78°
2026-05-03 20:41 20.97097 -86.65935 4191 ft 326 kts 78°
2026-05-03 20:41 20.97557 -86.63531 5098 ft 332 kts 78°
2026-05-03 20:42 20.98020 -86.61084 5957 ft 339 kts 78°
2026-05-03 20:42 20.98392 -86.59410 6497 ft 345 kts 73°
2026-05-03 20:42 20.99487 -86.56182 7626 ft 350 kts 69°
2026-05-03 20:42 21.00064 -86.54538 8282 ft 351 kts 69°
2026-05-03 20:43 21.00913 -86.52104 9118 ft 356 kts 68°
2026-05-03 20:43 21.01781 -86.49605 9954 ft 360 kts 68°
2026-05-03 20:43 21.02668 -86.47047 10418 ft 376 kts 68°
2026-05-03 20:43 21.03605 -86.44353 10665 ft 395 kts 68°
2026-05-03 20:44 21.04569 -86.41573 11255 ft 401 kts 68°
2026-05-03 20:44 21.05544 -86.38759 11913 ft 405 kts 69°
2026-05-03 20:44 21.06532 -86.35908 12561 ft 410 kts 69°
2026-05-03 20:44 21.07531 -86.33023 13198 ft 415 kts 69°
2026-05-03 20:45 21.08541 -86.30105 13826 ft 419 kts 69°
2026-05-03 20:45 21.09559 -86.27161 14360 ft 424 kts 69°
2026-05-03 20:45 21.10590 -86.24175 14841 ft 431 kts 69°
2026-05-03 20:45 21.11635 -86.21151 15374 ft 435 kts 69°
2026-05-03 20:46 21.12690 -86.18094 15921 ft 440 kts 69°
2026-05-03 20:46 21.13755 -86.15011 16464 ft 443 kts 69°
2026-05-03 20:46 21.14829 -86.11897 16951 ft 448 kts 69°
2026-05-03 20:46 21.15913 -86.08750 17455 ft 452 kts 69°
2026-05-03 20:47 21.17008 -86.05571 17949 ft 457 kts 69°
2026-05-03 20:47 21.18113 -86.02362 18404 ft 461 kts 69°
2026-05-03 20:47 21.19180 -85.99149 18848 ft 464 kts 72°
2026-05-03 20:47 21.19958 -85.95777 19295 ft 468 kts 78°
2026-05-03 20:48 21.20598 -85.92349 19735 ft 471 kts 78°
2026-05-03 20:48 21.21252 -85.88892 20175 ft 474 kts 78°
2026-05-03 20:48 21.21914 -85.85410 20608 ft 477 kts 78°
2026-05-03 20:48 21.22573 -85.81948 21038 ft 480 kts 78°
2026-05-03 20:49 21.23241 -85.78429 21457 ft 484 kts 78°
2026-05-03 20:49 21.23913 -85.74880 21880 ft 487 kts 78°
2026-05-03 20:49 21.24588 -85.71316 22294 ft 490 kts 78°
2026-05-03 20:49 21.25268 -85.67722 22704 ft 493 kts 77°
2026-05-03 20:50 21.26266 -85.64204 23099 ft 494 kts 66°
2026-05-03 20:50 21.27886 -85.60952 23492 ft 495 kts 54°
2026-05-03 20:50 21.30058 -85.58104 23824 ft 494 kts 43°
2026-05-03 20:50 21.32592 -85.55597 24138 ft 496 kts 39°
2026-05-03 20:51 21.35212 -85.53173 24452 ft 499 kts 38°
2026-05-03 20:51 21.37847 -85.50727 24750 ft 502 kts 39°
2026-05-03 20:51 21.40478 -85.48236 25045 ft 505 kts 39°
2026-05-03 20:51 21.43100 -85.45711 25284 ft 509 kts 40°
2026-05-03 20:52 21.45734 -85.43150 25602 ft 511 kts 40°
2026-05-03 20:52 21.48371 -85.40574 25888 ft 514 kts 40°
2026-05-03 20:52 21.51020 -85.37983 26154 ft 516 kts 40°
2026-05-03 20:52 21.53680 -85.35378 26407 ft 519 kts 40°
2026-05-03 20:53 21.56354 -85.32760 26632 ft 521 kts 40°
2026-05-03 20:53 21.59035 -85.30133 26830 ft 523 kts 40°
2026-05-03 20:53 21.61693 -85.27529 26978 ft 524 kts 40°
2026-05-03 20:53 21.64391 -85.24885 27008 ft 525 kts 40°
2026-05-03 20:54 21.67085 -85.22240 27007 ft 525 kts 41°
2026-05-03 20:54 21.71685 -85.16182 27009 ft 528 kts 56°
2026-05-03 20:54 21.73663 -85.12852 27012 ft 529 kts 56°
2026-05-03 20:55 21.75627 -85.09505 27013 ft 529 kts 56°
2026-05-03 20:55 21.77590 -85.06161 27010 ft 529 kts 56°
2026-05-03 20:55 21.79555 -85.02820 27010 ft 527 kts 56°
2026-05-03 20:55 21.81521 -84.99492 27010 ft 527 kts 56°
2026-05-03 20:56 21.83494 -84.96156 27010 ft 527 kts 56°
2026-05-03 20:56 21.85435 -84.92877 27009 ft 527 kts 56°
2026-05-03 20:56 21.87407 -84.89547 27088 ft 528 kts 56°
2026-05-03 20:56 21.89379 -84.86219 27378 ft 526 kts 56°
2026-05-03 20:57 21.91340 -84.82916 27866 ft 521 kts 56°
2026-05-03 20:57 21.93290 -84.79640 28348 ft 517 kts 56°
2026-05-03 20:57 21.95227 -84.76391 28877 ft 514 kts 56°
2026-05-03 20:57 21.97194 -84.73182 29398 ft 511 kts 53°
2026-05-03 20:58 21.99387 -84.70192 29934 ft 506 kts 45°
2026-05-03 20:58 22.01997 -84.67685 30404 ft 500 kts 33°
2026-05-03 20:58 22.04968 -84.65789 30873 ft 492 kts 20°
2026-05-03 20:58 22.08147 -84.64578 31335 ft 473 kts
2026-05-03 20:59 22.11310 -84.64098 31800 ft 451 kts 356°
2026-05-03 20:59 22.14431 -84.64089 32291 ft 446 kts 353°
2026-05-03 20:59 22.17485 -84.64195 32769 ft 443 kts 352°
2026-05-03 20:59 22.20559 -84.64300 33268 ft 442 kts 355°
2026-05-03 21:00 22.23638 -84.63915 33774 ft 449 kts
2026-05-03 21:00 22.25623 -84.63245 34107 ft 453 kts 17°
2026-05-03 21:00 22.29292 -84.60942 34681 ft 460 kts 33°
2026-05-03 21:00 22.31754 -84.58681 34776 ft 469 kts 38°
2026-05-03 21:01 22.36545 -84.53746 34987 ft 481 kts 39°
2026-05-03 21:01 22.41694 -84.49100 35016 ft 479 kts 24°
2026-05-03 21:02 22.44682 -84.47607 35021 ft 469 kts 12°
2026-05-03 21:02 22.47813 -84.46724 35019 ft 464 kts
2026-05-03 21:02 22.54063 -84.45255 35008 ft 462 kts
2026-05-03 21:03 22.60352 -84.43783 35009 ft 462 kts
2026-05-03 21:03 22.66642 -84.42312 35008 ft 462 kts
2026-05-03 21:04 22.72938 -84.40814 34982 ft 465 kts
2026-05-03 21:04 22.79180 -84.38839 34981 ft 477 kts 20°
2026-05-03 21:05 22.82032 -84.36932 34980 ft 487 kts 33°
2026-05-03 21:05 22.84505 -84.34399 34981 ft 494 kts 46°
2026-05-03 21:05 22.86490 -84.31332 34982 ft 500 kts 59°
2026-05-03 21:05 22.87887 -84.27867 34983 ft 503 kts 72°
2026-05-03 21:06 22.88630 -84.24170 35012 ft 503 kts 84°
2026-05-03 21:06 22.88970 -84.20389 35013 ft 503 kts 85°
2026-05-03 21:06 22.89576 -84.12840 35025 ft 504 kts 85°
2026-05-03 21:07 22.90188 -84.05247 35034 ft 505 kts 85°
2026-05-03 21:07 22.90805 -83.97653 35045 ft 506 kts 85°
2026-05-03 21:08 22.91428 -83.90048 35044 ft 506 kts 85°
2026-05-03 21:08 22.92565 -83.82612 35057 ft 503 kts 69°
2026-05-03 21:09 22.93999 -83.79168 35051 ft 499 kts 57°
2026-05-03 21:09 22.95993 -83.76118 35039 ft 493 kts 45°
2026-05-03 21:09 22.98464 -83.73577 35053 ft 485 kts 32°
2026-05-03 21:09 23.01301 -83.71650 35001 ft 477 kts 20°
2026-05-03 21:10 23.07388 -83.68892 34991 ft 479 kts 24°
2026-05-03 21:10 23.10172 -83.66853 34989 ft 486 kts 35°
2026-05-03 21:10 23.12681 -83.64370 34984 ft 490 kts 42°
2026-05-03 21:11 23.17222 -83.58862 34990 ft 493 kts 46°
2026-05-03 21:11 23.21650 -83.53145 34998 ft 495 kts 47°
2026-05-03 21:12 23.26092 -83.47432 35035 ft 495 kts 46°
2026-05-03 21:12 23.30560 -83.41705 35003 ft 496 kts 46°
2026-05-03 21:13 23.35033 -83.35973 34996 ft 497 kts 46°
2026-05-03 21:13 23.39486 -83.30258 35001 ft 498 kts 47°
2026-05-03 21:14 23.43972 -83.24495 35009 ft 499 kts 47°
2026-05-03 21:14 23.48469 -83.18711 35016 ft 500 kts 47°
2026-05-03 21:15 23.52963 -83.12925 35047 ft 500 kts 47°
2026-05-03 21:15 23.57452 -83.07134 35050 ft 500 kts 47°
2026-05-03 21:16 23.61942 -83.01332 35005 ft 501 kts 47°
2026-05-03 21:16 23.66437 -82.95517 35005 ft 502 kts 47°
2026-05-03 21:17 23.70179 -82.90673 35008 ft 502 kts 47°
2026-05-03 21:17 23.75410 -82.83893 35008 ft 502 kts 47°
2026-05-03 21:18 23.79914 -82.78047 35013 ft 503 kts 47°
2026-05-03 21:18 23.84411 -82.72205 35026 ft 503 kts 47°
2026-05-03 21:19 23.88915 -82.66345 35027 ft 503 kts 47°
2026-05-03 21:19 23.93421 -82.60476 35001 ft 504 kts 47°
2026-05-03 21:20 23.97935 -82.54590 35001 ft 505 kts 47°